This is the latest recevied weather packets stored in our database for station/object KE8WMS. If no packets are shown the sender has not sent any weather packets the latest 10 day(s).
| Time | Temp. | Humidity | Pressure | Rain* | Wind** | Luminosity | Snow |
|---|---|---|---|---|---|---|---|
| 1777942494 | 20.56° C | 56% | 999.5 hPa | 0 mm | - | 0 W/m² | - |
| 1777942192 | 20.56° C | 56% | 999.3 hPa | 0 mm | - | 0 W/m² | - |
| 1777941888 | 21.11° C | 56% | 999.3 hPa | 0 mm | - | 0 W/m² | - |
| 1777941585 | 21.11° C | 56% | 999.4 hPa | 0 mm | - | 0 W/m² | - |
| 1777941282 | 21.11° C | 56% | 999.2 hPa | 0 mm | - | 1 W/m² | - |
| 1777940978 | 21.11° C | 55% | 999.3 hPa | 0 mm | - | 2 W/m² | - |
| 1777940674 | 21.11° C | 57% | 999.2 hPa | 0 mm | - | 3 W/m² | - |
| 1777940373 | 21.11° C | 57% | 999.3 hPa | 0 mm | - | 4 W/m² | - |
| 1777940070 | 21.11° C | 57% | 999 hPa | 0 mm | - | 6 W/m² | - |
| 1777939767 | 21.67° C | 56% | 999 hPa | 0 mm | - | 8 W/m² | - |
| 1777939465 | 21.11° C | 57% | 998.8 hPa | 0 mm | - | 8 W/m² | - |
| 1777939162 | 21.67° C | 56% | 998.7 hPa | 0 mm | - | 9 W/m² | - |
| 1777938859 | 21.67° C | 56% | 998.7 hPa | 0 mm | - | 11 W/m² | - |
| 1777938555 | 21.67° C | 56% | 998.5 hPa | 0 mm | - | 14 W/m² | - |
| 1777938253 | 21.67° C | 55% | 998.5 hPa | 0 mm | - | 18 W/m² | - |
| 1777937949 | 22.22° C | 54% | 998.5 hPa | 0 mm | - | 24 W/m² | - |
| 1777937645 | 22.22° C | 54% | 998.5 hPa | 0 mm | - | 29 W/m² | - |
| 1777937342 | 22.22° C | 53% | 998.2 hPa | 0 mm | - | 34 W/m² | - |
| 1777937039 | 22.22° C | 53% | 998.3 hPa | 0 mm | - | 37 W/m² | - |
| 1777936736 | 22.22° C | 54% | 998.1 hPa | 0 mm | - | 40 W/m² | - |
| 1777936432 | 22.22° C | 52% | 998.5 hPa | 0 mm | - | 45 W/m² | - |
| 1777936129 | 22.22° C | 54% | 998.2 hPa | 0 mm | - | 55 W/m² | - |
| 1777935826 | 22.78° C | 53% | 998.7 hPa | 0 mm | - | 49 W/m² | - |
| 1777935525 | 22.78° C | 54% | 998.7 hPa | 0 mm | - | 51 W/m² | - |
| 1777935221 | 22.22° C | 54% | 998.7 hPa | 0 mm | - | 52 W/m² | - |
* Rain latest hour (hover to see other rain measurements)
** Current wind speed in m/s (hover to see current wind gust speed)